Showing default

IPEX, 39471

Orbit data source: Space-Track

IPEX, 39471 is an American payload satellite in LEO that was launched on Fri, 06 Dec 2013 UTC via an ATLAS V 501 launch vehicle from the Air Force Western Test Range (AFWTR). Payload-class satellites include a variety of spacecraft equipped with specific instruments for various scientific and technological missions. These include communications satellites like Starlink; space stations such as the ISS; scientific satellites like the Hubble; Earth observation satellites from companies like Planet Labs, Umbra, and HawkEye 360; GPS; miniature CubeSats for education and research; and military/defense satellites.

Loading next visibility...
Identifier
39471, 2013-072K
Orbit
LEO
Country
Flag of USUS
Related business
Manufacturer
Cal Poly
Mission
Non-operational Civil Technology
Bus & Motor
CUBESAT 1U, Unknown motor
Mass
1 kg wet, 1 kg dry
Launch date (UTC)
2013-12-06 (12 years ago)
Launch vehicle
ATLAS V 501
Launch site
Air Force Western Test Range (AFWTR)
Object type
Payload
Rocket body
Debris
Shape & HBR
Box, 0.1 m
Radar Cross Section
0.015 m², Small (<0.1 m²)

Expand to show TLE details & history
Last TLE update: 7 hours ago

TLE from 7 hours ago
0 IPEX
1 39471U 13072K   26095.28951823  .00012128  00000-0  62109-3 0  9992
2 39471 120.4637  21.7530 0157218 282.4991  75.8530 15.07067287104248
Epoch: 2026-04-05T06:56Z
TLE epoch observation values (Epoch: 2026-04-05T06:56:54.375Z)
Latitude
0.00006°
Longitude
83.92933°
Altitude
521.723 km
Speed
7.617 km/s
True Right ascension
01h 27m 00s
True Declination
0° 00' 00"
Sunlit
Object was in daylight at epoch
Visualization orbit readout
Latitude
Unknown
Longitude
Unknown
Altitude
Unknown
Speed
Unknown
Apparent Right ascension
Unknown
Apparent Declination
Unknown
Sunlit
N/A
Visualization observer readout
Local Sidereal Time
19:27:13
Azimuth
Unknown
Elevation
Unknown
Doppler factor
Unknown
Orbital elements
Apogee altitude
653.279 km
Perigee altitude
435.608 km
Semi-major axis
6,922.58 km
Eccentricity
0.01572
Inclination
120.4637°
RAAN
21.753°
Arg. of periapsis
282.4991°
True anomaly
77.6081°
Mean anomaly
75.853°
Eccentric anomaly
76.72974°
Mean motion
3.76826 °/min
Orbital period
95.53 mins
BSTAR
0.00062109
Loading maneuver chart data...
Computing Atmospheric mass density...
Loading historical data...
Loading historical data...
Loading historical data...
Loading historical data...
Loading historical data...
Loading historical data...
Loading historical data...

Documentation

Showing up to 5 results
|